Satellite: NOAA-17
Catalog number: 27453
Epoch time:      12179.76980766
Element set:    0752
Inclination:      098.3345 deg
RA of node:       206.2716 deg
Eccentricity:    0.0012577
Arg of perigee:   122.7081 deg
Mean anomaly:     237.5304 deg
Mean motion:   14.24449813 rev/day
Decay rate:       -1.1e-07 rev/day^2
Epoch rev:           52026
Checksum:              304

Satellite: NOAA-18
Catalog number: 28654
Epoch time:      12179.76823568
Element set:    0230
Inclination:      099.0465 deg
RA of node:       137.9440 deg
Eccentricity:    0.0014933
Arg of perigee:   122.3144 deg
Mean anomaly:     237.9476 deg
Mean motion:   14.11666288 rev/day
Decay rate:       -1.0e-08 rev/day^2
Epoch rev:           36605
Checksum:              317

Satellite: NOAA-19
Catalog number: 33591
Epoch time:      12179.77845785
Element set:    0422
Inclination:      098.8639 deg
RA of node:       119.4361 deg
Eccentricity:    0.0014325
Arg of perigee:   355.7090 deg
Mean anomaly:     004.3963 deg
Mean motion:   14.11352719 rev/day
Decay rate:       -7.0e-07 rev/day^2
Epoch rev:           17450
Checksum:              317

/EX
SB KEPS @ AMSAT  $ORB12180.M
Orbital Elements  12180.MISC

HR AMSAT ORBITAL ELEMENTS FOR MANNED AND MISCELLANEOUS SATELLITES
FROM WA5QGD FORT WORTH,TX June 28, 2012
Send SUBSCRIBE KEPS/UNSUBSCRIBE KEPS to majordomo@amsat.org only
BID: ORB12180.M
TO ALL RADIO AMATEURS BT

Satellite: HUBBLE
Catalog number: 20580
Epoch time:      12179.15382168
Element set:      25
Inclination:      028.4684 deg
RA of node:       078.3233 deg
Eccentricity:    0.0003142
Arg of perigee:   151.0542 deg
Mean anomaly:     209.0221 deg
Mean motion:   15.02575545 rev/day
Decay rate:       6.66e-06 rev/day^2
Epoch rev:            1623
Checksum:              256

Satellite: ISS
Catalog number: 25544
Epoch time:      12180.89865916
Element set:     830
Inclination:      051.6400 deg
RA of node:       063.8440 deg
Eccentricity:    0.0008358
Arg of perigee:   100.3910 deg
Mean anomaly:     009.0971 deg
Mean motion:   15.55839748 rev/day
Decay rate:      8.912e-05 rev/day^2
Epoch rev:           77983
Checksum:              317

Satellite: CO-58
Catalog number: 28895
Epoch time:      12179.56411465
Element set:     211
Inclination:      097.9108 deg
RA of node:       045.3800 deg
Eccentricity:    0.0019172
Arg of perigee:   117.6708 deg
Mean anomaly:     242.6472 deg
Mean motion:   14.60656053 rev/day
Decay rate:       3.66e-06 rev/day^2
Epoch rev:           35517
Checksum:              314

Satellite: FALCON
Catalog number: 30776
Epoch time:      12179.52036952
Element set:     377
Inclination:      035.4336 deg
RA of node:       213.7284 deg
Eccentricity:    0.0001277
Arg of perigee:   108.4604 deg
Mean anomaly:     251.6251 deg
Mean motion:   15.07631276 rev/day
Decay rate:      1.269e-05 rev/day^2
Epoch rev:           29181
Checksum:              290

Satellite: MAST
Catalog number: 31126
Epoch time:      12179.95707179
Element set:    0499
Inclination:      097.8731 deg
RA of node:       190.4275 deg
Eccentricity:    0.0095038
Arg of perigee:   077.1200 deg
Mean anomaly:     284.0596 deg
Mean motion:   14.54177465 rev/day
Decay rate:       2.59e-06 rev/day^2
Epoch rev:           27583
Checksum:              333

Satellite: CAPE1
Catalog number: 31130
Epoch time:      12179.58886372
Element set:    0503
Inclination:      097.8823 deg
RA of node:       186.4561 deg
Eccentricity:    0.0102916
Arg of perigee:   091.3617 deg
Mean anomaly:     269.9387 deg
Mean motion:   14.52960476 rev/day
Decay rate:       3.17e-06 rev/day^2
Epoch rev:           27528
Checksum:              330

Satellite: COMPASS
Catalog number: 32787
Epoch time:      12179.72234924
Element set:     339
Inclination:      097.7978 deg
RA of node:       240.8243 deg
Eccentricity:    0.0015921
Arg of perigee:   030.1381 deg
Mean anomaly:     330.0758 deg
Mean motion:   14.84050775 rev/day
Decay rate:       6.20e-06 rev/day^2
Epoch rev:           22537
Checksum:              302

Satellite: AAUSAT2
Catalog number: 32788
Epoch time:      12179.82449981
Element set:     331
Inclination:      097.8024 deg
RA of node:       241.3136 deg
Eccentricity:    0.0015798
Arg of perigee:   030.5398 deg
Mean anomaly:     329.6678 deg
Mean motion:   14.84379323 rev/day
Decay rate:      1.026e-05 rev/day^2
Epoch rev:           22541
Checksum:              326

Satellite: DO-64
Catalog number: 32789
Epoch time:      12180.19792601
Element set:     347
Inclination:      097.8105 deg
RA of node:       243.7404 deg
Eccentricity:    0.0015171
Arg of perigee:   025.7296 deg
Mean anomaly:     334.4670 deg
Mean motion:   14.85899748 rev/day
Decay rate:      1.418e-05 rev/day^2
Epoch rev:           22551
Checksum:              328

Satellite: CO-66
Catalog number: 32791
Epoch time:      12179.71612938
Element set:    0333
Inclination:      097.7992 deg
RA of node:       240.5525 deg
Eccentricity:    0.0016235
Arg of perigee:   030.1380 deg
Mean anomaly:     330.0765 deg
Mean motion:   14.83458241 rev/day
Decay rate:       2.55e-06 rev/day^2
Epoch rev:           22530
Checksum:              296

